Theta_e
315 315 315 314 319 323 320 320 316 316 316 310 310 312 313 322 329 330 334 337 337 338 338 338 338 338 338 338 340 340 340 343 343 337 336 342 341 341 343 341 343 343 343 341 341 343 343 343 343 343 341 338 336 337 338 337 338 338 339 340 337 332 329 328 327 327 328 330 333 336 337 335 336 336 334 339 341 341 341 341 342 342 342 341 341 341 339 338 337 338 338 340 340 341 341 341 341
316 316 316 317 321 322 319 319 315 311 311 308 310 314 317 327 332 332 336 338 339 337 337 338 337 337 338 338 338 340 342 341 340 341 340 340 340 342 342 341 342 342 341 339 340 340 342 343 342 342 340 338 335 335 336 337 338 337 336 334 330 328 328 328 328 328 330 334 338 339 339 337 335 335 337 340 341 340 341 341 342 342 342 342 340 338 337 336 334 335 336 338 339 340 339 340 341
316 317 318 320 322 321 319 318 314 308 308 307 310 320 323 330 334 335 338 339 338 336 337 337 336 336 336 338 337 340 342 339 338 339 339 339 340 342 342 341 341 342 341 340 340 339 340 341 341 342 341 338 335 334 335 336 337 337 337 334 331 330 330 332 332 330 332 336 339 340 340 337 334 333 337 340 341 341 341 341 341 342 342 342 341 338 337 335 335 335 334 335 335 335 334 334 336
316 318 320 321 320 319 319 318 316 310 307 307 311 324 328 331 337 337 337 338 337 336 337 336 336 336 336 338 335 340 341 339 339 339 339 339 340 341 341 339 339 340 340 340 341 340 340 340 340 341 341 340 337 334 334 335 335 336 336 334 332 332 333 335 336 334 334 336 337 338 339 337 334 335 337 339 340 341 340 341 341 342 342 342 342 340 338 337 338 337 332 330 331 331 332 333 332
316 319 319 321 320 318 319 320 320 315 312 313 315 326 331 332 336 336 337 336 335 336 336 336 337 335 336 337 336 341 341 339 339 339 338 338 340 341 340 338 339 338 338 340 341 340 338 338 339 339 340 340 340 337 334 334 334 333 332 333 333 334 335 336 337 336 334 335 336 337 338 336 335 336 337 338 339 340 340 341 341 342 342 342 342 341 340 339 336 335 330 329 331 333 336 337 334
317 319 319 321 320 319 320 318 318 320 325 326 323 329 332 331 335 336 336 335 334 335 335 336 336 335 338 338 337 339 339 338 338 339 338 337 339 340 340 339 339 338 337 339 340 340 336 335 335 335 336 337 338 338 338 336 334 333 333 334 335 335 336 336 336 336 335 334 334 335 336 334 334 335 336 336 337 338 339 340 341 342 342 342 342 340 340 338 333 331 333 335 335 337 338 338 336
318 319 319 319 319 320 320 317 318 321 330 332 327 330 332 333 335 335 336 336 335 335 335 336 335 336 339 338 338 338 338 338 338 339 338 338 339 340 339 338 339 339 338 339 339 339 336 333 332 332 332 332 333 335 337 337 337 337 337 337 336 336 336 336 336 335 335 333 333 334 335 334 333 335 335 335 337 338 339 340 340 341 341 342 342 341 341 338 334 332 337 339 337 338 339 338 338
319 319 318 320 320 322 322 321 324 325 331 333 331 333 335 336 335 335 335 335 335 335 335 335 334 337 338 337 339 338 337 337 337 338 339 339 339 338 338 338 338 339 339 339 338 338 336 335 333 331 330 330 329 330 332 332 334 335 337 338 337 336 336 336 336 336 335 334 333 334 335 335 334 335 336 338 338 338 339 340 340 340 340 340 341 342 341 340 337 335 338 339 338 338 338 338 337
320 320 319 321 321 322 323 325 330 331 334 336 336 336 336 335 333 333 334 334 335 335 335 334 333 337 338 338 338 337 337 337 337 338 339 338 338 337 337 337 337 338 338 339 339 338 335 335 334 332 330 328 325 325 328 327 327 328 330 334 336 335 335 336 336 337 336 334 334 335 334 335 335 335 336 338 338 337 337 338 339 339 338 338 339 340 340 340 339 337 338 338 338 338 337 337 336
320 320 320 322 320 319 321 326 331 334 337 336 336 336 335 334 333 333 334 335 335 335 335 333 333 336 338 338 338 337 335 336 338 338 338 337 337 337 337 337 337 337 338 338 339 338 333 330 333 332 330 328 325 322 323 324 322 321 321 324 330 333 333 335 336 337 336 335 334 334 334 334 335 335 335 336 338 338 338 338 337 337 337 336 337 338 338 338 337 336 337 337 336 336 335 335 335
320 319 321 321 317 317 320 327 332 336 337 336 335 335 334 333 333 333 333 334 334 335 334 333 335 335 337 338 337 336 335 336 338 338 337 336 336 337 338 338 338 337 338 339 338 337 332 327 327 327 325 327 328 326 324 325 323 321 318 317 321 325 329 333 333 333 334 336 336 334 334 334 335 334 335 336 339 340 340 339 337 337 336 334 333 334 335 335 335 335 336 337 335 334 334 335 335
320 319 322 319 317 318 323 329 333 337 336 336 336 334 334 332 333 332 333 333 333 334 333 334 335 335 337 338 336 335 336 337 338 337 336 335 335 336 337 337 337 337 338 338 338 338 336 332 330 326 322 322 326 329 327 325 326 326 321 318 318 317 324 330 329 328 330 334 335 335 333 334 334 334 335 336 339 341 339 339 339 338 336 334 332 331 332 333 333 332 335 335 333 334 334 335 335
320 320 322 322 322 323 326 331 334 337 335 336 336 335 333 332 333 332 332 332 333 334 332 333 332 334 337 337 336 335 337 337 337 336 335 334 335 335 336 337 336 337 337 338 338 338 338 338 337 333 330 328 326 326 324 322 324 328 326 324 321 317 324 330 330 329 330 334 333 333 333 334 334 334 335 336 338 340 338 339 340 338 335 335 334 332 331 331 331 331 333 333 333 334 335 335 335
319 321 324 325 326 324 327 332 332 332 333 335 335 334 334 333 332 331 332 333 334 333 332 332 331 334 337 337 335 335 336 337 336 335 334 334 335 335 336 336 336 337 337 337 337 337 337 338 339 338 338 337 334 333 330 325 323 326 329 328 323 322 327 326 327 330 331 335 335 333 334 335 335 333 335 336 337 340 339 339 339 338 337 337 336 334 332 330 330 330 331 332 333 334 335 335 335
319 322 327 326 326 324 327 332 331 329 331 335 334 333 334 332 332 331 332 334 333 331 331 333 332 334 335 337 336 335 337 336 336 335 334 334 334 335 335 335 335 335 335 336 336 336 337 337 338 338 339 338 338 338 336 333 328 326 329 329 325 328 330 322 323 329 329 335 336 336 336 336 336 333 334 336 336 339 339 339 338 338 338 338 337 336 334 331 329 329 330 331 333 334 335 335 335
319 323 328 325 322 323 327 331 329 327 330 335 333 333 334 333 332 332 332 332 332 332 332 332 332 334 333 335 335 336 338 337 335 334 334 334 334 334 334 334 333 333 333 334 334 335 335 335 335 336 338 337 337 338 337 336 333 330 330 328 325 327 329 322 321 326 327 334 337 337 337 337 337 334 334 337 337 337 338 338 338 338 338 338 338 337 335 333 330 327 328 331 333 334 335 335 335
319 324 328 323 321 324 329 331 328 327 331 334 333 332 334 334 333 332 331 331 332 332 332 331 332 333 333 335 335 336 337 336 335 335 335 334 334 333 332 331 331 330 330 331 332 332 333 334 335 335 335 335 336 337 337 337 335 334 333 331 328 326 328 326 324 324 327 335 337 337 338 337 339 338 338 338 338 338 338 338 338 338 338 338 338 337 336 336 333 328 327 329 331 333 334 335 335
319 324 326 322 323 326 331 331 327 328 332 333 332 332 332 334 333 331 332 332 333 332 332 332 333 333 335 337 336 336 337 335 336 335 336 335 334 333 331 329 327 327 327 328 330 330 332 332 333 334 334 334 334 336 336 337 336 336 336 335 333 330 330 330 329 328 329 335 338 337 338 337 339 341 339 339 340 339 339 338 338 338 338 338 337 337 336 336 335 330 327 327 329 331 333 337 337
319 324 325 324 325 327 331 330 326 329 331 331 332 331 331 333 333 332 332 332 332 332 331 331 333 335 336 338 337 336 337 336 337 336 336 335 333 332 329 327 325 325 324 324 326 328 329 330 331 332 332 332 333 334 335 335 336 336 336 336 336 335 333 331 331 332 333 336 339 339 338 338 340 342 340 339 340 339 338 338 338 338 338 338 337 337 337 337 335 330 326 326 327 329 333 339 339
318 321 324 326 326 327 331 329 328 330 330 331 331 330 331 331 331 331 332 332 331 332 331 330 333 336 335 337 338 336 336 336 336 336 335 333 331 330 328 326 325 324 324 323 323 325 326 327 329 329 329 330 332 333 333 334 335 336 336 336 337 337 337 335 335 335 335 335 338 341 339 339 341 341 339 338 338 339 339 338 337 337 338 338 337 337 338 337 335 331 327 326 329 331 336 339 338
318 320 324 327 327 328 330 330 329 330 330 331 331 330 331 330 330 331 330 330 331 333 333 332 333 335 334 335 337 335 336 336 335 335 333 330 328 327 325 325 324 324 323 322 322 322 323 324 325 326 327 328 329 331 331 332 333 335 335 335 336 337 337 338 338 337 336 334 336 340 341 340 341 340 339 338 339 340 340 339 339 339 340 340 338 337 339 338 337 336 331 331 334 336 338 339 339
320 321 324 327 327 329 330 330 330 330 330 330 330 330 330 330 330 330 330 331 332 333 332 332 332 334 335 335 335 335 335 335 334 332 330 328 326 325 325 324 324 323 322 321 321 321 321 322 322 323 324 324 326 327 329 329 330 332 334 335 335 336 336 337 338 338 339 338 336 339 340 340 340 339 340 340 340 340 340 340 340 341 341 340 338 337 340 339 339 340 337 336 337 337 338 339 340
322 324 326 328 328 330 330 330 331 329 328 329 330 330 330 331 332 331 332 333 333 332 332 332 333 335 336 335 335 335 334 334 333 331 328 326 326 325 325 324 323 322 321 321 321 321 320 321 321 320 321 321 322 324 326 327 328 330 331 333 334 335 336 336 337 336 338 340 338 339 339 340 340 339 340 340 341 340 340 339 339 340 339 339 338 338 339 339 340 340 340 338 338 338 338 339 340
323 326 328 329 329 330 331 331 330 329 329 330 329 329 329 331 332 332 333 333 332 333 334 335 336 336 336 335 334 334 334 333 332 329 326 325 325 325 324 323 322 322 322 322 321 321 321 320 320 319 319 319 320 321 322 324 326 327 328 331 333 333 334 335 336 336 337 339 340 339 339 339 339 339 339 339 340 340 340 339 339 339 338 337 338 339 339 339 340 340 341 340 339 338 338 339 340
325 326 329 331 331 332 331 330 330 329 329 329 328 329 331 331 332 332 332 333 333 334 335 336 336 335 334 333 333 334 334 332 330 328 325 324 324 323 323 322 322 323 323 322 321 321 320 319 319 319 318 318 318 318 319 320 323 326 327 328 330 331 333 334 334 336 336 337 339 339 339 340 339 339 339 339 339 339 340 340 339 338 338 337 338 339 339 339 340 340 341 341 340 340 340 340 339
327 328 329 331 331 331 330 330 330 329 329 328 329 331 331 331 332 333 333 333 333 334 334 334 334 333 332 332 332 333 333 332 330 328 325 323 323 323 322 322 322 323 323 322 321 320 320 319 319 318 318 318 318 318 318 319 320 323 325 326 328 329 331 332 333 334 335 336 338 338 338 339 339 339 339 339 339 339 340 341 340 339 339 338 339 339 339 339 340 341 341 341 340 340 340 340 340
330 329 330 331 331 331 330 330 330 329 329 329 329 330 331 330 330 333 332 332 332 333 333 333 333 332 331 330 331 332 332 332 329 327 325 322 322 322 322 322 322 322 322 321 320 320 320 319 319 319 318 318 318 318 318 318 319 321 324 326 327 328 328 330 331 333 333 334 336 337 338 338 339 339 339 339 339 339 340 340 340 341 340 340 339 339 339 340 340 340 341 341 341 340 340 340 341
331 330 331 332 331 331 330 330 330 329 330 329 328 330 330 328 330 333 332 332 332 333 333 332 332 331 330 328 329 331 331 331 329 327 324 322 321 322 322 322 322 322 321 321 320 320 320 320 319 319 319 317 317 318 318 318 318 320 322 325 327 327 327 328 330 331 332 333 334 336 337 338 338 338 339 339 338 339 340 340 340 341 340 340 340 339 339 341 341 341 341 341 341 341 341 341 341
329 327 330 331 331 331 330 330 329 329 330 329 328 326 326 328 331 334 332 331 331 331 332 332 331 330 328 328 328 329 330 330 328 326 323 321 321 322 322 322 322 321 321 321 320 320 320 320 319 319 319 317 317 317 318 318 318 320 322 324 325 326 326 327 328 329 330 331 332 334 335 336 337 338 339 338 338 338 339 340 340 341 340 340 341 340 339 341 341 341 341 341 341 341 341 341 341
327 325 327 328 327 328 330 330 328 329 329 329 327 320 320 329 333 333 332 331 331 330 331 331 331 330 328 328 327 327 329 329 327 324 321 321 321 321 322 322 322 320 320 320 320 320 319 319 319 318 318 318 317 317 318 319 318 320 322 323 324 324 325 326 327 327 328 329 330 332 333 334 336 337 337 337 338 337 337 339 339 340 340 339 339 338 339 340 341 341 340 340 341 341 340 341 341
326 324 326 325 321 323 330 330 327 329 328 329 327 317 319 332 334 333 332 331 332 331 330 330 329 329 328 328 327 326 328 327 325 321 320 321 320 321 322 322 321 320 320 320 320 320 319 319 319 318 317 318 317 317 318 319 318 319 321 322 323 324 325 325 326 326 327 328 328 330 331 332 334 336 336 337 337 337 336 337 337 339 339 338 338 338 338 341 342 341 340 340 341 341 341 341 341
324 321 320 321 320 322 329 329 327 328 328 329 326 317 321 333 334 333 332 331 332 331 331 330 329 328 327 327 326 325 326 325 322 320 320 321 321 321 322 322 321 320 320 321 320 320 319 319 319 317 317 317 318 318 318 318 318 319 320 321 322 323 324 324 325 326 326 327 327 328 329 330 332 333 334 336 336 336 336 337 337 338 339 338 338 338 338 340 341 341 341 341 340 341 341 341 340
321 319 316 317 319 321 325 327 328 328 328 328 326 320 323 331 333 332 332 332 332 332 332 331 330 329 327 327 326 324 324 323 321 320 320 321 321 322 322 321 320 320 320 320 320 320 320 319 318 317 316 317 318 319 319 318 318 318 318 320 321 322 323 324 324 324 325 326 326 327 328 329 330 331 332 334 335 336 336 336 336 337 338 339 339 339 339 339 340 340 341 341 340 341 341 340 340
316 318 316 317 319 319 320 324 327 328 328 327 326 324 324 329 333 333 331 332 332 332 332 332 331 329 328 326 326 325 323 322 321 321 322 322 322 322 322 321 321 320 320 319 320 320 319 318 317 317 317 317 319 320 319 318 318 317 317 318 320 321 322 323 323 323 324 325 325 326 326 327 328 329 330 331 333 334 334 335 336 337 337 338 338 339 339 339 339 340 340 341 341 341 340 340 340
313 314 315 316 318 319 320 323 325 326 327 326 326 324 324 328 332 333 332 331 331 332 332 332 331 330 329 327 326 325 324 323 322 321 322 322 322 321 321 321 320 320 320 319 319 320 319 318 318 317 317 318 319 319 317 316 317 316 317 317 318 319 320 321 321 322 323 323 324 325 325 326 326 327 328 329 330 332 333 334 335 336 336 337 338 338 339 339 339 340 340 340 340 340 340 339 340
315 315 315 314 315 317 321 324 325 326 326 325 325 324 324 326 330 334 333 331 331 332 332 331 331 330 329 328 327 326 324 323 323 322 321 322 321 321 321 321 321 320 319 319 320 320 319 318 318 317 317 318 317 318 316 316 316 315 316 317 317 318 318 319 320 321 321 322 323 323 324 325 325 326 326 327 329 329 331 332 334 336 336 337 338 337 338 338 339 339 339 339 339 339 339 339 339
318 317 316 315 315 316 321 325 325 326 325 324 325 325 324 324 328 333 333 332 332 332 333 332 330 330 330 329 328 326 325 324 323 322 321 322 322 321 321 320 321 320 319 320 321 320 318 318 318 317 317 317 317 318 317 316 316 315 316 316 316 317 317 318 319 320 320 320 322 322 323 324 325 325 325 325 327 328 329 331 333 335 335 336 336 336 337 338 338 339 339 339 338 338 339 339 339
318 316 315 315 315 317 321 324 324 325 324 324 325 325 325 325 326 330 331 332 332 331 333 333 331 330 329 329 328 326 326 324 323 323 322 323 322 322 321 320 320 321 320 320 321 320 318 318 318 317 317 317 317 317 317 316 316 316 316 315 315 315 316 316 317 318 319 319 320 321 321 322 322 323 324 324 325 327 328 329 330 332 334 335 336 335 336 337 338 337 338 338 337 337 338 339 339
318 316 315 314 316 318 320 322 322 324 324 324 325 324 325 326 325 329 330 330 331 331 331 332 332 330 329 329 328 326 325 324 324 324 323 323 323 322 321 321 320 320 321 320 320 320 318 319 318 316 317 317 317 317 316 316 317 317 316 315 314 315 315 316 316 317 318 318 319 319 320 321 321 322 323 323 324 325 327 328 329 330 332 334 335 336 335 336 336 336 337 336 336 336 336 338 339
317 316 314 313 316 316 316 319 321 323 324 324 325 324 324 326 326 329 330 328 330 331 331 331 331 330 330 328 328 327 326 325 324 324 324 323 323 323 322 321 321 321 320 320 320 320 319 319 318 316 317 317 317 317 316 317 317 317 316 315 314 314 315 315 316 316 317 318 318 318 319 319 320 321 322 322 323 324 326 327 328 329 330 332 334 335 335 335 335 335 336 336 336 335 335 337 339
317 317 315 314 316 316 316 319 321 321 323 325 324 322 322 325 327 327 328 329 331 331 330 330 330 330 330 329 328 327 327 326 325 324 325 324 323 323 322 321 321 321 321 320 320 320 318 319 318 316 317 317 317 317 317 316 316 316 316 315 314 314 314 314 315 315 316 317 317 318 318 318 319 320 321 322 322 324 325 326 327 328 329 330 332 334 334 334 334 335 335 336 335 334 335 337 339
315 316 316 316 316 317 317 319 319 317 319 323 322 318 319 323 324 325 328 331 331 330 330 330 330 329 329 329 328 328 327 326 326 326 325 325 324 323 322 322 322 321 321 321 321 320 318 319 318 317 317 317 317 317 317 316 315 315 315 314 314 314 314 314 315 315 315 316 316 317 317 317 318 319 320 321 322 323 323 325 326 327 328 329 331 332 333 333 335 334 334 335 335 334 334 335 337
314 315 316 317 317 317 317 317 316 313 316 322 322 317 316 319 322 324 328 332 332 331 331 330 329 328 328 328 328 327 327 326 327 326 326 325 325 324 323 322 322 321 321 320 321 320 319 319 319 317 317 317 316 316 316 316 315 315 315 314 313 314 314 314 314 314 315 315 316 316 316 316 317 318 319 320 320 321 323 324 326 326 327 329 330 331 332 333 334 334 333 334 334 334 334 333 335
313 315 316 317 317 316 317 316 314 313 316 320 321 318 315 316 321 327 328 330 332 332 332 330 329 328 328 328 327 327 327 326 326 325 326 326 325 324 323 322 322 321 321 321 321 320 319 319 319 318 317 317 316 316 316 316 315 314 315 314 313 313 314 314 314 314 315 315 315 315 315 316 316 317 318 319 320 321 322 323 324 326 326 328 330 330 331 332 333 334 334 333 334 333 334 334 333
315 316 316 317 317 317 317 315 314 315 315 314 317 318 315 313 320 327 328 326 328 330 331 331 330 329 328 328 327 327 327 326 325 325 327 327 326 325 324 322 322 321 321 321 321 321 320 320 319 318 317 317 317 317 316 315 315 314 315 314 313 313 313 313 314 314 315 315 315 315 316 315 316 317 317 319 321 321 322 321 321 324 326 328 330 331 331 332 333 334 334 334 334 334 333 334 333
316 316 316 317 317 317 317 315 314 315 314 313 316 318 314 313 317 322 324 323 324 327 328 329 330 329 329 329 328 327 326 325 325 326 327 327 326 325 324 322 322 322 322 321 321 320 320 320 319 318 318 317 316 317 316 315 315 314 314 314 313 312 313 313 314 314 314 315 315 316 316 316 316 317 318 319 321 322 322 321 320 321 325 329 330 330 332 332 333 333 334 334 334 334 333 334 334
315 316 317 317 317 318 317 316 314 313 314 315 317 318 317 315 315 318 323 325 326 328 327 327 328 328 328 327 327 327 327 325 326 326 327 326 326 326 324 323 323 323 322 322 320 320 320 320 320 319 318 317 317 316 316 315 315 314 314 314 312 312 313 313 314 314 314 315 315 316 317 316 316 317 317 319 321 321 322 321 321 320 322 326 329 330 331 332 332 332 333 334 334 334 334 334 334
316 317 316 314 315 316 315 315 315 313 314 316 316 317 318 315 316 320 324 326 326 327 329 328 327 326 326 326 325 326 326 325 325 325 325 326 326 326 325 324 323 322 323 322 321 320 320 320 320 319 318 317 317 316 316 315 315 314 314 314 312 312 313 313 314 314 314 315 316 316 317 317 317 316 317 319 320 321 321 321 321 320 320 321 325 329 330 330 331 331 332 334 334 333 334 335 334
317 317 315 313 312 313 312 312 312 312 313 315 315 316 316 315 318 321 324 325 325 326 327 327 326 325 324 324 324 325 326 325 325 324 324 326 327 326 326 325 323 323 324 323 321 321 321 320 320 319 318 317 316 316 316 315 315 314 314 314 312 312 313 313 314 314 314 315 316 317 317 318 318 317 317 318 319 320 321 321 321 321 321 320 321 326 329 329 330 331 332 333 333 333 333 335 335
317 315 313 313 312 313 313 312 311 312 313 314 315 315 314 315 320 323 324 325 324 324 324 324 325 324 324 324 322 323 324 324 324 324 324 326 327 327 326 324 323 323 324 324 322 322 322 321 320 320 318 317 316 316 315 315 315 314 314 314 312 312 313 313 314 314 313 314 316 317 318 318 318 318 317 317 319 320 320 321 321 321 322 321 321 323 326 328 329 330 331 332 332 332 333 334 334
317 316 315 315 314 314 315 313 312 313 313 313 315 314 313 315 320 322 323 324 323 323 323 323 324 324 324 323 321 321 321 321 322 323 325 327 327 327 326 325 324 324 325 324 323 323 322 321 320 320 318 317 317 316 315 315 314 314 314 314 312 312 313 313 313 314 313 314 315 317 318 318 319 319 318 317 318 319 319 320 321 321 321 322 322 323 324 326 327 328 330 331 331 332 332 332 332
318 318 317 316 315 315 314 315 316 315 314 313 313 313 314 316 320 321 322 322 321 322 322 323 323 322 323 322 320 320 320 320 321 322 324 327 328 328 327 326 326 326 326 325 324 323 323 321 321 320 318 317 317 316 315 315 314 314 314 314 313 312 313 313 313 314 314 314 316 317 318 318 318 319 319 319 318 318 319 319 320 321 321 321 322 322 324 326 326 327 328 330 331 331 331 331 332
318 318 317 316 316 316 315 316 318 317 315 314 312 313 314 317 320 322 322 322 321 321 321 321 321 321 322 321 320 319 319 319 320 320 323 326 328 328 328 327 327 327 327 326 325 324 323 322 321 320 318 317 316 316 315 315 314 314 314 314 313 312 313 313 313 314 314 315 316 317 318 318 318 318 319 319 319 319 319 319 320 320 321 321 320 320 323 325 327 328 328 328 329 330 331 331 332
318 317 316 316 316 317 316 315 316 315 314 313 313 313 313 314 318 321 322 323 322 321 321 321 321 321 321 320 321 321 320 321 322 322 323 326 328 328 328 328 327 327 327 326 325 325 324 322 321 320 318 317 317 316 315 314 314 314 314 314 313 312 312 312 313 314 315 316 316 317 317 318 318 318 318 318 318 318 318 319 319 320 320 321 320 319 322 324 326 328 329 328 327 329 331 331 331
318 317 317 317 317 316 316 316 316 316 315 314 313 314 313 314 317 319 320 322 323 322 321 321 321 321 320 320 321 321 322 324 324 324 323 325 327 328 328 328 327 327 326 326 325 325 324 323 321 319 318 317 317 316 315 314 314 314 314 314 313 312 312 312 312 314 315 316 317 317 318 318 318 318 318 318 318 317 317 317 318 319 319 320 320 320 322 323 325 327 328 328 328 329 330 330 331
319 319 319 320 319 316 316 316 316 316 316 315 315 314 314 316 318 318 319 321 321 321 321 321 320 320 320 320 320 321 322 325 324 322 322 325 327 328 328 328 327 326 326 325 325 324 324 322 320 319 318 317 317 315 314 314 314 314 313 314 314 313 312 312 312 314 315 315 317 318 318 317 317 318 317 317 317 316 316 317 317 317 318 319 320 320 321 322 324 325 325 327 329 329 329 330 331
318 319 319 319 319 318 317 317 316 317 317 317 318 316 315 317 319 319 320 321 320 320 320 320 319 319 319 320 322 322 323 325 325 324 324 326 328 329 328 328 327 326 325 325 324 324 323 322 320 319 318 317 316 315 314 314 314 314 313 314 314 313 312 312 312 314 315 316 316 318 318 317 317 317 316 316 316 316 316 316 316 317 317 318 319 320 321 322 323 324 324 325 328 329 329 330 331
320 319 319 319 319 318 318 318 317 318 319 318 320 319 317 318 319 319 320 320 319 319 319 319 319 319 319 320 322 323 323 325 327 327 326 327 328 329 329 328 327 325 325 324 324 323 322 321 320 318 318 317 316 315 314 314 313 313 313 313 314 313 312 312 312 313 315 316 316 316 317 317 316 315 315 315 315 315 315 315 315 316 317 318 319 319 320 321 322 322 323 324 326 327 328 329 330
Wind_Speed
5 5 6 7 6 7 7 7 5 4 5 4 3 2 5 3 2 6 6 5 5 5 5 7 7 6 5 7 11 12 11 9 6 2 3 8 9 9 8 9 10 10 12 13 15 16 15 16 16 16 16 17 17 18 18 17 16 15 15 14 16 17 16 15 14 13 12 11 11 11 10 10 10 12 13 15 14 11 9 9 9 9 9 10 10 9 10 10 11 11 12 13 14 14 13 14 14
4 5 7 7 7 8 5 5 4 5 5 4 4 2 7 6 4 6 6 5 6 7 7 8 9 10 10 10 9 11 13 13 11 7 8 13 12 11 9 9 11 12 14 16 17 17 16 16 16 16 16 17 17 17 18 17 17 16 14 14 15 16 14 13 13 13 12 11 11 11 10 9 9 10 13 14 12 9 8 9 9 9 9 9 9 9 9 10 10 11 12 13 14 14 13 13 13
4 5 7 8 8 7 3 4 5 5 6 5 6 5 7 7 7 9 9 9 9 8 7 7 8 7 6 8 7 7 9 10 11 10 9 10 9 9 10 11 13 15 15 16 17 18 18 16 16 17 17 17 16 16 16 16 16 16 15 14 13 14 13 11 11 12 12 11 11 11 11 10 9 10 13 12 10 8 8 9 8 8 8 8 9 9 9 10 10 11 12 13 13 13 13 12 12
5 5 7 8 7 5 5 4 4 5 4 5 7 7 5 7 10 10 10 10 8 6 6 7 7 8 7 10 8 8 9 8 9 9 8 7 7 8 10 13 15 17 17 19 18 19 19 17 18 17 17 17 16 15 14 14 14 14 14 13 12 12 11 9 9 11 11 11 10 10 11 11 10 10 11 10 9 8 8 8 7 8 7 8 9 9 9 10 11 12 13 13 13 13 13 12 11
4 5 7 8 5 3 4 2 2 3 2 4 7 7 6 8 10 9 9 8 6 6 5 6 7 8 10 9 5 5 7 8 10 10 8 9 11 11 11 14 16 17 19 20 18 19 19 20 21 20 19 18 17 14 13 14 14 13 13 12 11 10 9 9 9 9 10 10 10 10 10 10 10 9 8 8 8 7 7 7 6 6 6 7 9 9 9 10 11 13 13 13 13 13 12 12 11
6 7 7 9 3 1 4 3 3 3 4 3 7 8 8 9 9 11 11 10 9 8 6 7 9 11 10 9 8 7 5 6 8 10 8 11 12 11 11 14 16 18 20 19 17 18 20 22 23 23 22 20 19 16 13 13 13 12 12 11 9 8 8 8 8 8 8 9 10 9 9 9 9 9 8 8 7 6 6 6 6 6 5 7 9 9 9 9 10 11 11 11 11 11 12 12 11
7 7 7 7 2 3 4 5 4 7 5 3 8 9 9 10 9 11 11 11 10 9 8 9 11 12 8 6 9 10 10 9 7 9 11 12 12 11 12 15 16 18 19 19 17 18 20 22 22 23 23 22 21 18 16 15 13 12 10 10 9 8 8 8 8 8 7 7 9 8 8 8 8 8 8 8 7 7 6 5 5 5 5 6 8 9 9 8 9 10 10 9 10 11 11 11 10
7 5 4 5 4 3 3 7 6 8 6 6 10 11 11 10 7 8 9 8 9 9 9 10 9 10 8 6 7 9 13 14 12 13 14 13 12 12 13 15 16 17 18 19 19 19 20 21 22 21 20 20 19 19 18 17 16 14 12 11 11 10 9 8 7 7 6 6 7 7 7 7 7 7 7 6 7 7 7 6 5 5 5 6 7 8 8 8 8 9 9 9 10 10 10 10 10
7 5 3 4 4 4 6 8 8 9 9 9 10 11 10 8 6 7 9 9 9 9 8 7 5 8 11 11 11 9 11 14 15 15 14 14 14 15 14 14 16 17 18 17 17 18 19 20 21 20 19 18 15 16 17 18 17 16 15 12 12 11 9 8 7 6 5 6 6 6 6 5 6 5 5 4 5 7 7 7 6 5 5 5 6 6 8 8 8 9 9 10 10 9 10 10 9
6 4 3 3 5 7 8 9 9 9 9 8 9 10 8 6 6 7 10 11 10 9 10 8 7 11 13 13 10 6 9 13 15 15 14 15 15 16 16 15 15 16 16 15 14 15 17 19 20 19 19 17 14 14 15 16 16 15 14 13 12 11 9 7 7 5 4 5 4 5 6 5 4 4 2 2 5 7 7 7 7 6 5 5 5 5 6 7 7 8 10 10 9 9 9 9 8
4 3 3 3 6 7 8 9 8 8 9 8 9 8 6 6 7 9 10 11 10 10 11 9 11 13 13 11 7 7 12 14 14 15 14 14 15 16 16 15 14 15 15 15 14 13 15 17 17 17 17 17 15 15 15 15 14 13 13 12 11 11 9 6 6 5 3 4 4 4 5 4 3 4 2 2 5 6 7 8 8 8 6 5 4 5 5 6 6 7 9 9 8 8 8 8 7
3 3 4 4 6 8 9 9 9 8 9 8 7 6 4 5 7 9 10 10 10 9 8 7 10 11 11 10 6 10 15 13 13 14 14 15 15 16 15 15 14 15 14 14 13 12 12 13 15 15 16 16 15 14 14 14 13 12 11 10 9 8 7 6 6 5 4 4 4 3 3 3 2 3 2 2 4 5 7 9 8 8 8 6 5 4 5 5 6 7 8 8 7 6 7 7 6
2 2 4 4 6 9 10 8 8 8 8 6 6 6 4 5 8 9 9 10 9 9 10 8 10 9 9 9 7 11 14 13 13 14 15 15 15 16 16 16 16 16 15 14 13 13 11 11 11 12 13 12 12 11 11 13 13 10 7 6 6 6 5 6 6 5 5 4 4 3 3 3 2 3 2 3 4 6 7 9 8 8 8 7 6 5 5 4 5 6 7 7 7 6 6 6 6
2 1 2 4 7 10 10 7 8 8 7 6 6 6 5 6 8 7 7 10 10 10 11 9 9 9 9 9 8 8 11 13 13 15 15 15 15 16 16 16 16 16 16 15 14 13 11 10 10 10 9 8 7 7 8 10 11 10 6 4 5 4 4 5 5 5 4 4 5 4 3 2 2 2 2 3 5 6 8 9 8 8 8 7 7 6 5 5 5 6 7 8 7 6 5 5 6
2 1 2 5 9 9 8 7 9 8 6 7 6 6 7 7 6 6 5 8 11 9 10 8 4 5 8 7 8 10 13 16 14 15 15 15 16 16 16 16 16 16 16 16 15 13 12 11 10 9 7 6 6 7 7 6 6 6 6 4 5 4 3 4 5 3 3 3 4 4 2 1 1 2 4 4 4 5 7 8 7 8 8 8 7 6 6 5 5 6 7 8 8 6 4 5 6
2 2 3 6 10 9 8 9 9 9 7 7 7 7 9 9 5 6 6 7 11 8 6 7 4 4 8 9 12 16 17 17 15 15 14 14 14 14 14 14 15 15 16 15 14 14 13 12 10 9 8 8 7 7 8 6 5 3 2 3 4 3 3 4 4 3 3 3 4 3 0 2 2 3 4 4 3 3 6 7 7 7 7 7 7 6 6 6 5 5 7 8 8 6 5 4 5
2 3 4 6 10 8 7 8 7 8 9 9 9 7 9 10 7 7 8 9 12 10 8 9 8 9 12 13 17 20 18 16 15 14 12 11 11 11 11 11 12 13 14 13 13 13 12 12 11 10 10 9 9 8 8 7 5 3 1 1 2 2 4 4 4 3 2 3 2 1 1 2 2 3 5 4 2 3 5 7 7 7 7 7 7 6 6 6 5 5 7 8 8 7 5 3 3
3 3 5 6 10 7 5 8 8 9 11 11 9 7 8 10 9 7 9 11 12 13 12 12 12 14 16 17 18 18 17 15 13 12 10 9 8 9 9 9 10 10 11 12 13 12 11 12 11 10 9 9 9 8 7 6 5 3 2 1 1 1 2 3 3 3 2 1 1 0 1 3 2 3 5 5 4 4 4 5 7 7 7 8 8 7 6 5 5 5 7 8 8 7 5 3 3
2 2 5 6 9 6 3 10 10 9 11 11 9 7 8 9 9 6 7 11 12 12 13 12 13 15 17 16 16 16 15 14 12 11 10 9 9 9 9 10 10 10 11 11 12 11 11 10 11 11 9 8 8 7 6 6 5 4 2 2 1 0 1 2 2 2 1 1 1 1 2 4 3 3 6 7 6 5 5 5 6 6 7 7 8 7 6 5 4 4 6 7 7 6 5 4 4
1 1 5 9 11 8 4 10 9 9 11 11 10 8 9 9 6 5 8 11 10 10 10 11 13 14 15 14 15 15 14 13 11 11 11 11 10 10 10 10 10 10 10 10 11 11 11 10 10 10 10 9 8 7 6 6 5 5 4 3 2 1 1 1 2 2 1 1 2 2 3 4 4 4 5 7 6 4 5 5 5 6 6 7 7 7 6 4 3 3 4 5 6 6 5 4 4
0 0 7 11 12 10 7 10 10 10 10 9 10 9 9 8 6 7 9 9 8 8 7 10 14 14 14 14 14 14 13 12 11 12 12 11 11 10 10 10 9 9 9 10 11 12 11 10 10 10 10 10 9 7 7 7 6 5 5 5 4 3 2 2 2 2 2 2 2 2 3 4 4 4 4 5 5 5 5 5 5 5 5 6 7 7 6 5 3 4 4 5 6 5 4 4 3
1 5 11 11 10 11 9 9 10 10 9 9 9 8 9 8 7 7 5 4 7 8 7 10 14 13 13 13 13 13 12 12 11 12 11 11 11 10 10 10 10 9 10 11 12 12 12 12 11 10 10 10 10 8 7 8 8 7 6 6 5 4 3 2 2 1 2 3 2 2 3 4 4 5 4 5 6 6 6 5 5 6 6 6 5 6 7 5 4 4 4 5 5 4 4 3 3
3 8 10 9 8 11 9 9 10 9 9 9 7 8 8 9 9 8 8 9 8 9 9 12 14 14 14 14 13 12 11 12 11 11 11 10 10 10 10 10 10 10 11 12 11 12 13 13 13 12 12 11 10 10 8 8 8 8 7 6 5 5 5 4 3 2 2 4 3 2 4 4 5 5 5 6 6 6 6 5 5 5 6 6 5 4 5 5 5 4 4 4 4 4 4 3 3
6 10 9 8 9 11 10 9 9 7 8 8 7 8 7 7 8 7 9 10 8 10 11 13 16 15 15 13 12 12 11 12 11 10 10 10 10 10 11 12 12 12 12 11 11 12 13 14 14 14 14 13 12 10 9 8 8 7 7 6 5 5 5 5 4 3 3 3 3 3 3 4 5 5 5 6 6 5 5 6 6 6 6 6 5 5 5 6 6 5 5 5 4 4 4 3 3
9 11 9 9 9 10 10 9 9 8 8 7 8 8 7 8 8 8 10 10 10 11 12 13 15 14 13 12 12 12 11 11 10 10 9 9 10 11 12 13 12 12 12 11 11 12 13 14 16 16 17 16 14 12 10 9 8 7 7 6 6 5 5 5 5 5 4 3 2 3 3 4 5 5 6 6 6 6 5 5 6 6 6 6 6 6 6 6 6 5 5 5 4 4 3 3 4
8 10 10 10 10 10 9 9 8 7 6 6 8 9 9 9 8 8 9 9 10 11 11 12 12 12 11 10 11 11 11 10 10 9 8 9 10 12 13 12 12 11 11 11 11 12 13 14 15 17 17 16 15 13 11 10 9 8 7 7 6 6 5 6 5 5 6 4 2 2 3 4 5 6 6 6 6 6 5 5 5 6 7 7 7 7 7 7 6 6 6 6 5 4 4 4 4
10 12 12 11 10 9 8 8 8 7 6 5 7 9 9 7 3 4 8 8 11 11 11 11 11 11 10 9 10 10 10 9 9 8 9 9 10 12 12 11 11 11 11 12 12 12 12 13 14 15 15 16 15 14 12 11 9 8 7 7 6 6 6 6 5 5 6 6 3 2 3 4 5 6 6 6 6 6 6 6 6 7 7 7 8 8 8 8 7 7 7 6 5 5 4 4 4
12 14 13 11 10 9 7 8 7 5 5 3 5 7 7 5 1 5 10 9 10 11 11 11 10 10 9 9 9 8 8 9 8 8 8 8 9 10 10 10 10 11 11 12 11 11 11 11 12 13 14 16 16 15 13 11 10 8 7 6 6 6 6 6 6 5 6 6 5 3 3 4 4 5 6 6 6 6 6 7 7 7 8 7 8 9 9 9 8 7 7 6 5 5 5 5 4
12 13 12 10 10 9 6 5 5 4 4 3 4 6 7 6 5 10 12 10 10 10 10 10 9 9 9 8 7 7 7 8 7 7 8 9 10 10 9 9 9 10 11 11 10 10 10 10 10 11 13 15 16 16 14 12 10 8 7 6 6 6 6 6 6 6 6 6 6 5 4 3 4 5 5 5 6 6 6 6 7 8 8 7 8 10 11 11 10 8 8 7 6 6 6 5 5
11 10 9 9 8 7 4 3 4 4 4 2 4 4 6 8 9 12 12 11 11 10 10 10 9 8 8 7 7 6 7 7 7 7 9 10 10 9 9 8 8 9 9 9 10 10 10 10 10 11 13 14 15 15 13 12 11 9 7 6 6 6 6 5 5 5 5 6 6 6 6 4 3 4 4 4 6 7 7 7 8 8 9 11 10 11 12 12 10 9 9 8 8 7 7 6 5
9 8 7 6 5 7 5 3 5 6 4 3 5 3 5 8 10 12 11 11 11 10 11 10 9 9 8 7 7 7 7 7 8 9 10 10 9 9 9 8 8 9 9 8 9 9 11 11 10 11 13 14 14 14 13 12 11 9 7 7 7 6 6 5 5 5 5 5 5 6 7 6 4 3 4 4 5 6 8 8 9 8 9 12 11 10 11 10 10 10 10 10 9 8 7 6 6
6 6 5 4 3 6 6 4 6 4 4 6 7 3 5 8 10 12 11 11 11 9 10 10 10 9 8 8 7 7 7 7 9 9 10 10 9 8 8 8 8 8 8 7 7 8 9 9 10 11 13 13 13 14 13 12 11 10 8 7 7 6 6 5 5 5 5 5 5 5 6 8 6 4 3 4 5 6 7 8 9 8 8 10 10 10 11 10 10 11 11 11 10 9 8 7 7
5 3 3 4 3 5 7 7 6 3 4 8 7 3 4 5 8 12 11 12 11 8 9 10 9 9 8 7 7 7 7 8 8 9 9 8 7 7 7 7 7 7 7 6 6 6 6 7 9 10 12 13 12 12 12 12 12 11 8 7 7 7 6 5 5 5 5 5 5 5 6 7 8 7 5 4 5 6 7 8 8 8 9 9 10 10 11 11 10 11 12 11 11 10 9 9 8
4 3 2 3 3 4 7 7 8 6 6 8 9 5 3 5 6 10 10 10 11 9 8 10 9 9 8 7 7 7 7 7 8 9 9 7 7 6 6 7 6 6 6 5 4 3 4 6 7 9 11 12 12 12 12 12 12 12 10 8 7 6 6 6 5 5 5 5 5 5 6 7 7 8 7 5 5 6 7 8 8 8 9 9 10 11 11 11 11 11 12 12 12 11 10 10 9
4 3 3 3 3 5 6 6 9 11 9 9 10 8 3 6 5 7 9 9 9 8 8 9 9 9 8 8 8 8 7 7 8 10 10 8 7 6 5 6 5 4 4 3 1 1 3 5 6 8 10 11 11 11 12 13 12 12 11 9 8 7 6 6 5 5 5 5 6 6 6 6 6 7 8 7 6 7 7 8 7 7 9 9 10 10 11 11 11 12 13 13 12 12 11 10 9
4 4 3 2 3 5 5 4 7 11 10 9 9 9 7 6 5 4 7 8 8 8 8 7 8 8 8 8 8 8 8 7 9 11 11 9 8 7 6 5 4 3 3 2 1 1 3 5 6 8 9 11 11 11 12 14 14 13 12 11 10 8 7 6 6 6 5 6 7 7 7 6 6 6 7 7 7 7 8 7 7 7 8 10 11 11 11 12 12 12 13 14 13 12 12 11 9
3 3 2 3 4 4 6 5 4 8 9 9 10 10 9 5 4 4 5 7 8 8 8 7 7 8 8 8 8 8 8 8 10 11 10 10 9 8 7 6 5 4 3 3 2 1 3 5 6 8 8 9 11 11 12 13 14 14 13 12 11 10 8 7 6 6 6 6 7 7 7 7 7 7 6 7 8 8 8 7 7 7 9 10 12 12 12 12 12 12 13 14 14 14 13 12 11
3 3 3 4 4 3 5 5 4 7 8 7 9 10 10 8 3 4 5 7 7 7 8 7 8 8 7 8 9 8 8 8 10 11 10 10 10 9 8 7 6 5 4 3 2 1 2 3 5 7 7 8 9 10 11 11 13 13 13 13 12 10 8 7 7 7 7 7 8 8 8 8 8 8 8 7 8 8 9 8 8 8 9 10 11 12 12 12 13 13 14 14 14 15 14 12 13
3 2 3 3 3 2 4 4 4 6 7 6 8 9 9 10 7 5 7 8 6 6 8 7 8 8 7 8 9 9 9 9 10 11 12 11 11 11 9 7 7 6 5 4 3 1 1 2 3 5 6 7 8 9 10 11 11 11 12 14 13 10 9 8 8 8 8 8 8 8 7 8 8 8 8 8 8 8 9 10 10 10 9 10 11 12 13 14 14 15 16 16 15 16 16 13 14
3 2 3 1 3 2 2 5 5 7 7 6 8 8 8 9 8 7 9 8 7 7 8 8 8 8 8 8 8 9 10 10 11 11 13 13 12 12 10 9 8 7 6 5 4 3 1 0 1 3 4 5 7 8 10 11 11 11 12 13 12 10 9 8 8 7 8 8 8 7 7 7 8 8 8 8 8 8 9 10 11 11 10 10 10 11 13 13 14 15 16 16 16 15 15 14 15
1 3 4 2 4 3 2 4 5 6 7 6 7 7 7 7 8 8 8 8 8 8 8 8 9 8 8 8 8 10 10 10 11 12 13 13 13 12 11 10 9 8 7 6 5 4 2 2 1 2 3 4 6 8 9 10 11 12 13 14 13 11 9 8 9 9 9 9 9 9 9 8 8 8 8 8 8 8 9 10 10 12 12 11 11 12 14 13 14 16 16 16 17 16 15 16 16
3 4 5 4 3 2 1 5 6 4 6 7 7 7 4 3 6 9 7 7 9 9 9 10 9 9 8 8 9 11 11 11 12 12 13 14 14 13 12 11 10 9 8 7 6 5 4 3 2 2 3 4 5 7 8 9 11 12 13 15 14 12 11 10 10 10 11 11 10 10 10 10 9 8 8 8 8 8 10 11 11 12 13 13 12 12 13 13 14 16 17 16 19 20 19 17 14
1 5 5 3 0 2 4 5 5 4 1 5 7 8 4 1 6 9 8 8 9 9 10 10 9 8 8 8 9 10 11 11 11 12 13 14 14 14 14 12 12 10 8 7 7 6 5 4 3 2 3 4 5 6 8 8 10 12 13 14 14 13 12 12 11 11 11 11 12 12 11 10 10 9 9 9 9 9 10 11 12 12 13 14 14 12 13 14 14 15 17 17 18 21 21 18 14
2 5 3 2 2 3 2 4 6 4 1 3 7 6 6 4 4 6 7 9 10 9 10 10 9 9 9 9 9 9 9 9 10 10 12 15 15 15 15 14 12 10 8 8 8 7 6 5 4 3 3 3 4 6 7 8 9 11 11 13 14 13 12 12 12 11 11 12 12 12 11 10 9 9 9 8 9 9 9 11 12 12 13 14 14 13 12 14 13 13 16 17 18 20 21 19 17
4 5 4 3 3 5 4 6 6 2 3 4 6 4 7 5 2 5 5 7 8 9 9 8 9 10 10 9 8 8 8 9 10 10 12 15 16 15 15 14 12 10 9 8 8 7 7 6 5 4 3 3 3 4 6 7 8 10 10 12 15 14 13 13 12 11 12 12 12 12 11 10 9 8 8 8 9 9 9 11 12 11 12 12 11 11 11 12 13 13 14 15 17 20 21 20 21
5 3 4 3 4 5 4 6 4 2 5 4 4 3 6 5 1 3 2 3 3 3 5 7 9 9 9 7 7 7 7 8 9 10 12 14 15 15 15 13 12 11 10 10 9 8 8 7 6 5 4 3 3 4 5 6 8 9 10 12 15 15 14 14 13 12 12 12 12 12 12 11 9 8 7 7 8 9 9 11 12 12 10 9 8 9 10 11 12 13 14 15 17 20 20 21 24
2 4 6 5 5 4 4 4 3 4 4 1 4 1 5 6 2 2 1 2 3 2 1 3 5 7 6 6 6 7 6 7 8 9 11 12 12 13 14 14 12 12 11 11 10 9 9 8 7 5 4 3 3 4 5 6 7 8 9 11 14 15 15 14 13 13 12 12 12 11 11 11 9 8 8 8 8 9 10 11 12 13 13 8 6 7 9 10 12 13 14 15 17 19 20 21 23
4 4 4 5 4 3 4 4 3 5 2 4 4 2 4 6 1 3 3 3 2 2 2 1 1 2 2 3 4 4 5 6 6 7 8 10 11 13 14 14 14 13 12 12 12 11 9 8 7 6 5 4 3 4 4 5 6 8 8 10 14 15 14 14 13 13 12 12 12 12 12 11 10 9 8 9 9 9 11 11 12 14 15 13 9 7 9 10 11 13 13 15 17 19 19 20 21
3 3 3 4 3 2 3 2 2 4 1 4 3 1 4 3 3 4 4 3 1 1 2 1 2 2 1 0 1 1 3 5 6 6 6 8 10 12 14 15 15 14 13 13 13 12 10 9 7 6 5 4 4 4 4 5 6 7 8 10 14 15 14 14 14 13 12 11 13 13 12 11 11 9 8 9 10 10 11 11 12 13 14 15 13 10 10 10 11 13 14 15 17 17 17 18 20
5 4 3 4 3 2 3 3 3 3 1 4 3 2 5 2 4 5 4 3 3 2 2 2 2 1 1 1 1 1 2 3 4 5 5 7 10 11 13 14 14 14 14 14 13 13 11 9 8 7 6 5 4 4 4 5 6 7 7 9 13 14 14 14 14 13 11 11 12 13 12 11 11 10 9 9 10 11 11 11 11 12 12 13 13 12 11 10 11 13 14 15 17 17 17 19 21
4 4 5 4 3 4 4 4 4 4 3 1 3 2 4 2 2 3 4 3 3 2 1 1 1 1 1 1 1 1 1 2 2 3 4 6 9 10 11 12 13 13 13 13 13 13 11 9 9 8 6 6 5 5 4 5 5 6 7 8 12 14 14 14 13 13 11 10 12 13 12 12 10 10 10 9 9 11 12 12 12 12 11 11 12 12 12 11 11 12 13 15 17 17 17 19 20
1 2 4 3 4 4 3 3 4 5 5 2 1 2 2 2 2 2 3 3 3 2 1 1 1 0 0 1 1 1 1 1 1 2 3 5 7 9 9 10 11 11 12 13 13 13 12 10 9 8 7 6 6 5 4 5 5 6 7 8 11 13 13 13 13 12 11 10 12 13 13 12 10 9 9 9 9 10 11 12 12 11 11 11 11 12 12 12 11 11 12 14 16 16 17 18 19
1 2 2 4 3 5 3 1 1 3 5 1 1 3 1 2 2 4 4 4 4 4 3 2 2 1 1 1 1 1 1 1 1 1 1 3 5 7 8 9 10 10 10 12 12 12 12 10 9 8 8 7 6 6 5 4 5 6 7 7 10 13 13 13 13 12 10 11 13 13 13 11 9 8 7 8 9 9 9 11 11 11 11 12 12 12 12 12 11 11 12 13 15 15 16 18 18
5 2 4 1 2 2 3 3 1 3 4 2 1 4 3 1 1 4 5 4 4 4 3 3 2 3 3 1 0 2 2 1 1 1 2 3 5 6 7 8 9 9 10 10 11 11 11 10 9 9 8 8 7 6 4 4 5 6 6 7 9 12 13 13 13 11 11 13 14 13 12 10 9 8 7 7 9 9 9 10 11 11 11 11 11 11 12 12 11 10 11 12 13 13 14 15 15
4 3 2 2 2 1 1 2 3 4 5 3 2 3 3 2 2 1 1 0 1 1 1 2 2 2 2 1 1 2 3 3 3 3 3 4 5 6 7 8 8 9 9 9 9 10 10 10 10 9 9 8 7 5 4 4 5 5 6 6 8 10 13 14 12 10 12 14 14 13 10 8 7 7 8 9 9 10 10 11 11 11 11 11 11 10 11 12 11 10 11 11 11 11 12 12 12
2 3 2 1 3 3 3 2 4 5 5 4 4 3 2 3 4 4 5 4 4 4 4 4 4 3 3 3 2 2 3 4 4 4 3 4 6 6 7 8 8 8 8 8 9 10 11 10 10 10 9 9 8 6 5 5 5 5 5 6 7 9 12 13 11 10 12 13 12 10 8 6 6 7 9 9 10 11 11 12 12 12 12 12 11 10 10 12 11 10 11 10 8 9 11 11 11
0 1 1 2 1 2 2 1 2 4 5 4 5 5 3 4 4 5 5 5 4 4 5 5 5 5 4 4 3 3 3 4 4 4 4 4 6 6 7 8 8 8 8 8 9 10 11 11 10 10 10 10 9 7 6 5 5 5 5 6 6 9 11 12 11 11 11 11 10 8 7 7 7 8 9 10 11 11 12 12 12 12 11 11 10 10 10 11 11 10 10 10 8 8 9 10 10
5 3 3 3 2 2 3 1 1 2 4 4 5 6 3 4 3 4 4 4 4 5 6 7 7 8 7 5 4 3 3 3 4 4 4 5 6 7 8 8 8 9 9 9 10 10 11 11 11 11 10 10 9 7 6 5 5 4 5 5 6 9 11 12 12 11 10 9 8 7 7 7 8 8 10 11 11 12 12 12 12 11 10 10 9 9 9 9 10 10 10 10 10 9 8 8 9
Wind_Direction
165 175 176 176 188 210 202 217 208 181 239 201 170 167 130 92 100 134 123 139 126 83 66 70 60 45 73 94 89 75 43 24 37 57 112 103 107 92 79 78 72 67 73 73 68 65 72 83 89 92 95 98 103 104 101 101 102 104 107 110 114 113 113 112 109 106 101 99 96 97 95 93 96 99 105 106 105 110 112 109 106 107 110 112 113 114 114 113 112 111 111 108 104 101 101 101 97
185 174 178 182 197 220 184 216 226 165 212 180 154 142 118 136 155 108 85 95 93 98 95 77 72 65 75 90 94 82 55 48 64 75 99 116 105 81 75 73 70 64 70 77 75 76 79 86 93 93 93 97 102 105 105 106 106 105 103 106 111 113 110 109 108 105 102 101 100 101 99 93 94 103 109 105 103 109 109 108 110 112 114 116 118 117 115 113 111 110 110 108 105 102 101 101 99
202 182 187 191 200 228 184 214 232 175 192 164 131 111 128 147 113 80 76 87 93 105 104 89 71 50 74 92 77 71 67 58 72 95 104 106 97 80 75 73 75 70 71 79 79 79 78 82 91 92 91 93 100 105 108 109 109 106 104 104 106 109 107 105 106 104 102 99 101 103 99 90 91 106 112 107 104 107 110 115 120 119 119 122 122 121 118 114 112 111 110 109 107 104 102 100 100
183 198 204 201 197 214 205 211 226 199 180 138 126 123 135 121 101 91 90 96 107 115 105 100 70 26 50 81 73 72 83 70 61 88 92 70 91 98 80 77 77 76 79 80 79 79 78 77 82 88 88 88 93 99 105 108 108 106 106 105 105 108 106 107 104 102 102 98 96 99 98 88 92 105 110 113 113 113 118 122 124 122 125 127 125 123 119 116 113 113 114 112 107 103 100 97 96
185 210 217 230 217 190 217 208 219 208 124 107 125 121 113 107 111 106 98 103 109 110 107 106 90 64 59 60 55 70 89 97 74 71 83 77 88 92 81 81 80 82 82 79 79 81 83 84 84 85 84 85 87 89 98 102 102 103 105 106 106 106 107 107 102 99 97 94 90 91 95 90 94 103 105 111 112 114 119 120 120 122 129 128 126 125 122 120 119 120 120 117 113 107 102 97 93
197 197 208 244 253 235 231 176 172 120 53 42 114 111 110 111 115 113 105 99 90 90 98 98 106 101 82 67 60 59 69 97 83 61 72 81 79 79 80 84 84 83 77 73 77 79 81 85 86 85 84 83 79 78 85 91 95 99 104 104 103 103 103 102 99 94 89 89 86 86 90 89 96 107 109 111 111 110 111 116 119 122 126 125 129 129 127 125 126 126 122 120 121 116 108 103 98
203 190 192 217 182 232 218 135 118 105 70 31 105 111 109 107 114 122 114 104 96 89 91 100 113 109 97 98 77 61 59 70 83 71 75 85 83 81 81 80 83 88 85 79 76 78 80 82 83 82 83 84 80 76 76 78 82 85 90 92 93 97 98 98 99 94 89 88 85 87 89 87 96 114 122 121 121 118 112 116 117 122 123 123 129 130 130 129 132 132 125 124 128 124 114 108 105
218 209 200 201 169 202 154 102 88 95 88 65 89 102 104 106 117 127 117 106 104 98 101 113 114 101 96 110 95 72 68 73 86 84 81 86 86 83 80 78 81 88 93 89 82 79 79 80 80 78 81 84 81 77 75 74 72 71 72 76 80 82 87 96 100 97 94 86 85 89 90 87 93 114 132 137 138 133 129 127 123 125 123 124 129 131 133 132 135 137 132 132 133 129 117 110 106
219 218 219 206 163 143 115 105 96 91 96 90 92 101 101 103 113 119 111 100 99 98 102 118 115 102 106 103 97 87 78 82 86 82 81 83 85 86 84 79 78 82 88 89 87 83 80 81 81 81 82 84 83 75 72 70 65 64 62 63 69 72 79 92 96 98 100 90 86 89 90 88 86 105 135 154 146 142 141 139 134 130 132 133 135 137 139 139 140 141 140 139 135 128 118 110 104
210 215 238 197 151 133 117 107 101 96 96 100 106 103 95 93 99 106 107 100 97 92 89 99 109 113 114 102 97 94 91 92 87 81 81 84 87 87 84 81 79 79 81 83 87 88 87 87 84 82 79 77 79 76 71 66 60 60 59 53 55 60 66 78 89 96 106 101 95 91 89 86 82 88 118 152 140 146 149 147 144 138 137 136 139 144 146 147 147 147 147 144 138 128 116 105 100
204 189 251 187 150 132 120 113 105 102 100 106 108 94 84 90 99 105 104 100 94 94 98 102 108 116 114 99 98 107 98 91 86 87 88 90 89 86 84 82 81 79 79 80 83 88 90 89 84 82 82 76 72 71 66 61 55 54 56 55 53 51 53 60 74 80 98 109 105 98 90 87 77 70 92 136 130 146 155 154 154 140 134 136 143 147 151 153 151 152 152 149 140 127 111 98 95
219 163 219 175 137 120 116 114 109 109 115 120 112 95 84 95 107 110 106 100 95 96 103 111 119 125 116 100 104 109 97 88 91 96 96 92 88 87 87 85 82 79 79 79 78 80 84 86 82 83 87 83 77 74 65 55 42 42 49 49 48 48 58 67 62 64 92 117 110 110 103 98 85 67 90 137 133 154 160 155 154 143 136 136 139 145 150 153 156 157 157 155 144 128 107 98 100
265 176 211 142 106 113 112 109 122 125 122 123 116 109 96 98 105 106 104 96 91 96 97 113 131 126 111 109 116 110 97 94 101 101 99 96 93 92 91 88 84 82 80 80 77 77 77 79 82 83 79 76 81 78 61 49 34 29 40 36 29 34 57 74 68 69 86 103 102 108 101 101 108 92 111 141 152 172 162 152 152 147 144 140 139 144 148 152 161 161 162 163 155 137 112 103 105
312 276 233 134 111 114 119 129 145 134 120 126 123 113 95 93 101 101 104 96 85 92 98 112 130 117 113 120 122 115 106 109 109 105 104 101 101 97 92 89 85 82 80 79 77 77 76 73 75 79 76 71 76 66 49 50 40 15 2 15 19 11 34 54 59 69 73 82 84 83 80 84 102 117 142 165 186 183 165 160 154 149 151 150 146 148 149 152 162 167 171 171 165 152 124 111 107
310 243 183 139 116 119 138 146 142 125 121 135 127 117 100 91 105 97 78 89 91 96 108 110 118 129 135 137 125 121 119 120 115 109 109 104 101 95 91 88 81 77 75 75 75 74 73 71 69 70 73 68 60 61 56 61 63 17 339 349 6 350 359 22 30 50 55 67 74 67 73 122 108 129 158 187 201 172 163 169 159 154 154 155 157 158 153 149 157 171 180 179 176 167 142 122 109
305 242 170 139 118 129 154 150 142 125 129 139 128 126 108 89 88 82 66 94 106 106 109 99 77 113 127 125 121 124 125 123 118 114 110 103 98 93 91 85 77 72 69 69 70 70 72 72 71 67 66 66 58 64 64 59 75 68 330 328 338 334 347 7 10 19 26 37 62 65 84 191 153 144 160 180 202 162 164 171 162 160 154 154 159 162 159 149 150 169 185 190 187 178 164 135 112
268 228 165 139 122 136 155 143 133 119 127 140 138 136 115 101 90 87 95 106 108 100 88 88 87 93 107 116 120 124 125 122 120 117 112 107 103 97 90 82 77 72 68 66 65 66 68 69 67 64 61 65 66 62 61 56 64 88 131 273 295 308 337 358 4 13 37 27 48 83 214 199 165 161 164 162 193 183 170 172 172 168 158 158 160 164 164 150 150 171 191 198 196 188 180 157 127
251 199 153 131 117 142 151 107 108 126 134 136 140 136 118 114 112 114 115 109 106 101 92 92 97 98 105 114 119 121 121 121 121 117 114 111 104 95 87 79 77 75 72 66 62 59 61 63 61 62 59 62 64 58 58 57 61 76 119 159 226 252 318 343 347 13 80 65 41 81 228 216 178 168 168 158 189 193 166 170 174 169 165 168 166 163 160 149 154 173 190 201 201 195 187 174 165
268 174 141 106 108 146 129 101 122 138 132 128 131 127 113 113 120 136 129 117 114 108 104 105 108 109 110 113 117 119 116 116 116 113 107 99 93 90 88 82 77 75 73 69 63 58 59 62 58 61 63 66 61 51 53 48 50 57 63 89 100 220 291 309 317 1 50 156 175 206 219 224 201 179 178 169 185 180 156 166 168 167 169 173 171 160 155 157 162 169 184 195 198 200 190 189 189
287 206 133 104 120 151 119 109 123 123 124 126 122 117 107 106 120 141 129 122 119 112 118 127 127 123 120 119 118 117 113 111 112 107 97 90 87 86 86 84 82 77 73 71 65 57 56 58 57 56 56 60 57 46 45 39 34 35 32 34 36 27 355 321 312 329 302 225 194 206 214 221 210 199 193 179 182 170 158 162 158 161 167 175 175 160 154 165 168 158 174 186 192 203 197 197 201
322 5 119 117 134 139 110 113 121 122 126 120 119 119 108 104 110 129 135 130 121 113 118 133 134 128 124 123 119 116 114 112 108 100 93 88 86 86 86 84 84 80 74 69 62 56 51 50 49 46 45 45 44 39 35 33 29 26 20 7 12 20 11 353 318 309 304 283 230 225 232 223 220 215 200 187 192 193 182 169 161 162 162 171 177 166 159 175 189 164 173 187 191 203 198 197 209
76 75 110 128 136 120 108 119 121 123 124 120 125 119 110 110 100 104 111 95 99 106 113 125 128 125 122 121 121 121 119 114 105 96 93 90 90 90 92 91 88 82 74 67 60 54 48 46 45 41 39 36 35 33 24 22 23 22 15 4 2 360 359 358 328 324 317 297 269 242 240 229 231 224 204 199 202 206 204 189 180 175 165 166 176 171 159 177 208 190 190 200 196 198 195 197 208
113 96 109 124 122 115 118 123 121 127 129 122 116 108 118 118 95 79 65 65 83 99 114 123 122 122 120 122 125 124 121 114 102 94 93 93 94 93 93 91 86 82 76 70 64 57 50 47 46 44 40 34 29 25 20 15 15 13 7 6 4 352 345 345 340 333 304 290 280 243 237 235 236 231 218 216 211 212 212 206 197 188 184 180 185 182 163 186 210 208 210 212 202 196 193 194 202
125 115 110 110 109 114 118 122 127 129 120 110 112 120 129 117 100 90 78 78 95 109 119 121 120 123 121 122 125 119 117 114 101 94 95 94 95 94 90 86 82 82 79 75 69 60 53 47 45 44 41 36 29 22 17 11 8 4 359 360 357 347 337 332 330 324 310 285 280 258 238 238 240 239 232 226 221 220 219 213 208 202 201 195 196 196 186 197 206 213 219 219 210 199 196 193 204
115 120 115 110 106 110 116 124 128 121 114 118 125 118 102 100 102 93 86 90 104 114 122 122 124 126 124 126 127 122 120 117 108 103 102 100 98 94 87 85 83 82 81 78 72 63 54 47 43 41 38 34 29 23 16 8 1 356 354 353 346 341 333 323 323 322 313 287 277 271 249 240 239 240 238 234 231 225 225 223 216 209 206 201 200 201 199 202 207 214 219 221 215 205 199 201 214
108 118 120 120 111 112 124 130 127 121 125 134 128 113 101 110 111 91 88 102 114 121 126 128 132 128 125 130 133 132 129 122 116 112 109 105 99 92 86 87 86 83 83 79 72 64 55 48 43 37 33 28 24 21 15 8 359 353 349 344 342 339 329 319 317 315 309 306 296 266 256 246 236 236 236 235 235 231 231 233 227 214 209 206 202 204 206 207 208 212 216 217 213 209 207 209 218
116 116 114 116 111 111 127 127 124 119 120 144 138 118 115 138 170 103 108 122 128 133 133 134 135 128 130 139 139 138 135 130 125 118 116 111 100 93 91 91 88 85 83 78 71 64 57 50 42 35 29 24 20 17 13 8 359 352 345 341 340 337 334 324 316 311 310 315 313 277 257 250 237 234 235 233 234 234 232 232 229 220 213 210 205 205 209 212 213 212 215 215 212 211 208 213 222
122 119 112 111 110 107 120 124 127 128 116 148 145 120 128 161 202 111 129 141 140 139 138 138 138 135 143 146 143 143 139 136 133 125 117 108 99 97 98 95 91 87 80 75 72 66 60 52 43 35 27 23 19 15 12 7 1 352 345 342 339 336 339 333 323 320 314 312 312 304 267 252 244 235 232 233 235 234 234 232 228 225 217 211 208 206 207 214 217 214 214 214 215 215 211 216 223
131 133 123 122 126 114 113 122 136 155 126 146 167 151 157 158 117 117 135 145 146 145 140 142 144 147 152 150 148 147 145 143 139 128 114 104 100 103 101 96 92 88 82 77 74 67 59 52 44 36 26 22 20 16 11 6 1 354 348 344 341 337 336 336 332 328 322 316 313 311 293 270 254 247 236 231 238 238 239 236 231 227 219 213 209 207 210 213 217 216 215 215 216 216 216 216 218
142 148 138 138 147 130 123 132 151 154 121 151 215 198 150 134 122 127 138 150 155 154 150 151 153 156 158 158 158 151 155 154 143 129 118 114 110 110 105 96 89 86 85 77 70 63 54 46 39 33 26 24 22 19 13 8 3 358 352 348 345 339 332 333 334 333 330 321 316 316 316 304 271 262 253 236 238 240 241 240 236 231 221 217 215 214 217 216 214 214 214 216 217 216 217 216 216
148 151 153 160 164 141 141 164 178 162 130 192 247 251 129 128 132 134 143 157 162 158 156 162 164 165 163 163 165 156 161 155 138 131 125 121 119 117 109 98 90 84 83 76 68 61 53 45 37 30 25 24 25 23 18 11 5 0 357 354 348 342 335 331 332 335 334 329 324 323 327 325 312 283 267 253 244 240 239 240 238 235 226 223 223 223 226 225 218 216 216 217 217 215 215 215 214
155 163 168 182 173 144 152 183 204 186 154 205 250 267 119 128 140 140 150 160 165 166 162 168 170 166 164 165 168 160 155 146 137 134 127 124 122 119 112 102 94 86 80 73 66 59 53 47 39 30 24 25 25 25 23 17 10 3 358 356 352 347 338 332 334 333 330 335 332 327 334 335 335 336 300 265 255 244 241 243 238 236 234 227 224 224 227 230 223 219 218 216 218 217 213 213 215
176 216 185 188 187 156 166 180 203 217 176 198 240 273 98 121 148 143 156 167 168 176 169 171 171 163 166 169 169 161 151 148 145 137 129 126 124 120 115 107 98 91 82 71 65 58 55 51 40 31 25 24 22 22 23 20 15 8 359 352 351 350 343 337 337 333 333 340 336 333 338 337 337 340 332 298 267 253 244 245 240 232 236 234 227 223 224 226 225 222 220 217 219 219 215 212 212
193 243 197 198 205 171 169 173 191 209 208 201 216 243 85 111 160 148 156 173 173 181 176 172 171 168 174 174 172 168 159 159 151 140 138 134 127 123 115 110 102 94 90 80 73 59 58 54 41 32 25 22 19 18 18 17 14 11 4 353 345 343 342 344 340 335 338 340 340 342 338 334 334 330 329 329 301 270 251 245 242 233 234 238 233 227 225 224 225 224 222 219 218 218 216 213 212
207 226 206 200 208 205 188 171 185 197 213 215 213 233 182 137 165 156 157 176 181 182 181 176 175 175 176 175 176 174 168 165 153 148 148 143 138 135 121 116 113 106 107 105 101 65 56 52 41 32 25 21 19 18 18 15 12 10 5 359 351 339 332 337 339 337 337 338 341 342 334 327 324 320 323 328 319 297 276 253 242 236 235 239 237 232 229 225 223 223 224 223 217 216 216 214 212
218 226 234 224 211 224 210 171 180 194 210 221 217 235 225 164 149 168 171 178 185 184 183 184 178 176 178 180 178 175 175 168 155 154 156 156 154 149 145 147 149 145 146 169 181 87 50 44 39 31 24 22 20 19 19 15 11 8 3 360 356 345 333 326 327 332 335 342 345 341 335 330 323 320 319 318 314 309 301 280 255 244 240 242 239 233 230 228 224 221 224 225 219 216 215 213 207
228 232 240 232 219 226 211 182 170 199 218 225 225 239 244 213 148 171 194 189 194 194 189 190 185 182 182 184 180 176 179 167 156 159 163 167 166 164 169 174 174 176 181 200 203 98 46 37 35 28 21 21 20 17 16 13 10 4 359 357 353 345 338 328 321 323 323 329 336 337 338 339 336 328 320 314 309 305 302 298 280 256 243 244 244 237 232 232 229 225 225 224 221 217 212 206 198
219 236 253 235 225 210 183 184 173 198 224 232 233 245 248 244 211 172 200 211 211 209 204 200 193 189 184 186 187 185 183 166 157 165 172 176 178 181 184 185 185 186 192 207 203 117 42 32 33 25 17 17 18 15 13 11 8 2 357 355 349 342 339 333 326 321 316 315 317 320 325 328 330 325 321 316 307 300 295 295 291 273 251 245 249 244 238 235 231 229 228 224 220 217 216 206 191
225 222 251 235 210 141 144 183 193 194 222 241 235 243 249 245 240 212 213 223 225 220 220 217 205 197 187 189 192 191 189 176 171 177 181 184 189 190 191 196 197 194 197 206 200 173 39 27 30 21 14 13 14 12 9 5 3 360 356 354 349 342 337 333 327 321 318 318 314 316 319 321 319 315 316 314 306 299 293 289 286 284 269 252 250 246 240 238 232 230 231 229 224 218 218 210 197
271 265 260 178 140 219 199 176 193 202 217 251 248 245 246 236 235 237 230 227 219 212 214 216 214 205 196 194 192 196 197 189 186 187 186 189 191 193 198 202 202 201 203 205 200 194 208 267 18 13 5 7 9 5 3 0 357 357 356 353 350 346 340 336 333 329 326 324 320 318 322 326 323 315 313 311 304 297 294 289 281 279 277 261 254 251 246 242 236 232 230 231 231 226 220 213 208
34 342 325 53 140 241 313 121 158 198 211 239 261 256 243 231 236 243 234 224 212 202 203 208 210 210 208 200 193 202 207 201 197 195 192 192 192 196 202 206 206 208 207 205 202 199 206 222 281 352 346 356 2 359 359 358 357 357 356 353 353 351 347 344 344 340 335 329 323 319 317 317 319 319 320 317 311 306 299 294 285 277 274 264 253 251 251 246 240 236 231 229 231 235 231 220 211
108 50 24 40 133 172 96 139 167 209 216 211 235 260 252 222 249 245 222 218 218 206 207 211 207 206 207 200 198 207 211 207 203 201 196 192 193 199 203 206 209 211 211 207 201 200 206 215 238 305 328 342 352 355 357 358 358 358 356 355 354 350 347 348 344 337 333 330 325 320 315 307 304 307 313 314 313 314 309 303 297 286 276 267 253 248 249 247 244 241 235 230 227 230 238 239 225
121 65 45 37 74 166 161 183 217 258 263 173 208 260 282 249 253 241 214 218 223 210 210 215 208 202 203 202 207 211 210 208 206 204 201 197 198 200 201 205 210 212 212 206 199 199 206 214 226 268 309 330 343 352 354 357 359 357 356 355 352 347 344 343 338 332 329 328 325 322 316 308 302 296 300 307 308 313 317 312 306 298 287 273 257 248 247 246 246 246 241 236 228 225 234 246 243
49 59 11 316 287 275 234 236 255 277 14 160 195 246 280 267 233 206 203 220 222 213 216 219 212 208 209 210 216 214 208 206 205 207 206 201 201 201 201 206 209 211 210 205 202 201 205 213 218 240 285 317 333 345 351 356 358 356 355 354 352 348 342 337 334 331 331 330 329 325 320 313 306 295 293 300 305 316 327 324 315 303 291 280 263 251 250 248 245 247 246 243 238 230 229 236 241
45 45 330 313 299 292 281 269 270 281 282 240 186 208 273 274 157 146 192 231 233 225 229 232 226 221 218 219 228 224 208 205 211 215 211 205 204 203 202 207 208 209 210 209 208 204 205 210 212 227 260 295 316 334 345 351 355 355 355 355 353 348 342 338 334 331 332 332 330 328 324 318 312 301 291 291 303 321 332 334 335 319 295 282 267 255 253 252 245 244 245 243 241 238 232 232 236
30 351 280 250 252 259 262 273 280 248 263 264 140 178 276 287 185 144 192 260 274 250 242 246 240 234 228 229 239 232 214 212 217 221 218 212 208 202 201 207 207 207 210 212 212 209 208 208 210 221 242 277 301 321 334 345 353 353 355 355 353 349 344 340 336 333 336 334 330 330 330 325 318 307 292 288 303 320 329 336 347 346 325 294 268 259 258 256 249 245 244 241 242 242 237 235 235
323 271 255 233 234 240 247 263 273 259 253 106 97 160 275 285 274 100 52 334 334 341 292 259 247 239 232 230 234 232 224 219 218 223 224 217 208 202 202 205 207 210 212 212 215 215 213 212 211 218 235 263 289 309 324 339 349 351 354 354 351 349 345 342 338 335 336 333 330 332 333 329 321 310 293 286 300 319 329 336 345 355 354 333 286 273 270 262 255 250 246 244 243 240 237 240 240
240 253 267 257 234 222 238 215 213 263 269 93 90 138 246 267 298 66 21 339 301 314 6 13 273 225 213 224 233 238 237 230 223 226 226 213 203 201 202 204 209 215 215 212 215 216 216 216 212 218 232 251 278 298 315 331 344 349 351 351 350 349 344 341 337 334 334 332 330 330 329 328 324 316 296 286 296 315 326 336 342 349 356 353 332 301 283 273 267 260 254 251 247 241 237 239 243
268 280 290 283 265 236 262 238 229 277 31 98 100 154 248 254 60 35 360 359 349 348 18 38 55 78 100 226 253 241 240 241 235 229 224 210 202 202 203 205 210 216 216 214 214 214 216 218 215 220 231 242 266 284 303 322 339 347 348 350 349 346 343 339 334 333 333 328 326 326 325 326 326 321 305 289 293 306 319 330 337 338 344 347 342 323 299 285 275 266 260 258 256 251 244 240 242
357 342 322 309 319 321 293 288 295 307 62 118 137 247 266 230 72 31 20 47 56 50 45 30 38 48 25 351 326 277 241 247 243 229 220 210 206 207 208 209 212 215 216 214 213 213 215 217 216 221 228 237 253 268 292 315 333 341 344 348 347 345 342 339 333 332 330 322 322 323 321 322 322 318 312 298 291 300 311 317 325 329 329 332 334 329 317 300 281 269 263 261 259 255 251 246 243
7 350 315 327 5 338 317 319 327 333 333 129 154 239 295 329 30 34 62 88 88 89 85 49 345 316 341 317 306 311 265 257 250 229 217 212 211 213 211 211 213 215 214 213 213 214 214 217 219 220 227 235 245 258 283 308 325 335 339 343 346 344 341 338 333 330 325 317 317 317 317 319 317 314 316 311 298 299 305 308 312 319 322 323 324 325 323 315 300 283 271 265 260 258 256 251 245
32 331 298 354 12 328 323 336 339 330 309 304 163 276 326 37 65 104 128 144 139 140 147 149 173 140 318 283 301 337 328 326 288 234 214 207 208 212 213 213 215 215 214 213 215 215 213 218 218 218 227 234 241 251 274 300 315 329 335 339 344 343 341 338 332 328 323 315 313 313 313 314 311 312 317 317 311 303 301 302 306 313 322 324 323 322 320 316 311 297 281 270 264 262 260 254 249
317 296 348 37 350 311 308 276 226 268 278 301 5 301 290 105 100 132 167 185 164 167 181 163 132 122 238 281 7 337 333 354 302 253 212 203 203 209 213 216 217 217 217 217 218 217 215 217 217 218 224 229 236 247 266 294 309 321 329 337 342 342 340 337 332 328 323 317 314 312 311 310 311 316 324 329 331 326 317 314 312 313 321 328 331 331 320 311 307 300 289 279 270 264 261 257 251
313 354 41 35 252 271 288 279 247 270 294 345 356 312 308 317 79 143 170 191 184 185 190 185 184 201 221 226 328 313 316 317 284 248 218 213 209 211 215 220 222 220 222 224 222 218 216 215 215 219 224 226 232 241 259 292 308 316 326 333 339 340 338 335 332 326 322 320 316 311 308 311 316 325 335 343 349 349 345 341 332 322 321 324 332 333 319 313 311 303 297 287 275 264 258 260 258
3 54 55 292 272 273 278 298 314 310 316 329 328 319 317 338 31 76 113 59 268 278 284 266 254 246 265 286 269 276 272 260 255 235 223 217 214 217 217 219 223 222 225 227 223 217 213 211 214 220 224 225 226 233 253 286 301 307 319 324 332 338 336 335 332 323 324 325 321 318 318 324 327 330 340 347 349 346 342 343 341 336 330 323 326 329 321 319 318 314 310 295 275 264 256 259 263
119 152 143 344 341 338 336 333 319 312 315 321 327 329 340 33 27 354 348 2 351 338 328 316 324 333 333 333 321 296 261 242 241 235 225 221 219 219 219 220 224 225 224 224 220 216 214 212 215 219 220 220 220 227 247 275 288 295 307 315 327 335 334 335 330 320 324 331 333 336 340 349 349 343 347 349 344 339 336 335 334 334 332 328 328 330 326 325 324 328 330 312 283 268 264 263 265
164 173 42 20 13 301 294 273 314 314 314 322 323 321 358 52 31 357 357 6 358 347 343 335 330 329 333 343 339 315 279 246 240 238 230 227 224 220 219 221 225 227 224 220 217 217 217 215 215 216 216 217 218 224 242 263 275 288 301 310 325 332 330 332 328 317 321 333 340 340 340 349 354 349 347 341 335 334 332 331 327 323 323 327 332 333 331 330 327 332 342 334 309 280 266 264 267
345 1 6 356 358 307 281 245 98 311 307 326 316 312 358 71 55 20 17 10 358 351 342 328 318 319 323 328 329 310 290 263 245 244 238 229 226 222 219 218 221 224 222 217 216 217 218 216 216 216 214 215 218 222 235 254 266 281 300 309 322 329 326 327 325 315 318 327 329 330 337 344 346 343 339 332 328 326 324 324 322 316 315 322 332 337 334 333 331 333 341 339 327 310 288 273 269